Location: ??? ???
(33.4974°N, 35.4618°E)
Time: 14:50:28
(UTC+00:00)

Daily predictions for brighter satellites

Satellite Brightness Start Highest point End
(mag) Time Altitude Azimuth Time Altitude Azimuth Time Altitude Azimuth
ADEOS Rocket 4.2 15:01:47 10° N 15:08:19 56° WNW 15:15:28 10° SSW
Cosmos 1302 Rocket 4.4 15:13:40 10° SSW 15:18:54 71° WNW 15:24:10 10° NNE
OAO 3 Rocket 3.5 15:14:39 10° W 15:19:28 66° SSW 15:24:10 10° ESE
Cosmos 2227 Rocket 3.0 15:16:03 10° N 15:20:58 30° ENE 15:25:50 10° ESE
Cosmos 1939 Rocket 3.7 15:18:39 10° SE 15:22:03 28° ENE 15:25:25 10° NNE
Envisat 4.3 15:19:38 10° S 15:24:30 47° W 15:29:24 10° NNW
Cosmos 1689 Rocket 2.5 15:22:10 10° NNE 15:24:54 37° E 15:27:35 10° S
OAO 2 Rocket 3.3 15:22:39 10° W 15:27:42 80° N 15:32:13 12° E
Cosmos 1697 Rocket 2.8 15:22:56 10° S 15:28:21 53° ESE 15:33:48 10° NNE
Cosmos 1892 3.7 15:25:26 10° NNE 15:28:44 26° ENE 15:32:01 10° SE
Cosmos 1300 4.3 15:28:34 10° SSW 15:32:08 38° W 15:35:43 10° N
Meteor 2-8 Rocket 4.4 15:26:22 10° S 15:32:27 80° E 15:38:36 10° N
Cosmos 1400 Rocket 3.2 15:28:59 10° SSW 15:33:05 70° W 15:37:09 10° N
S3M 4.3 15:27:24 10° SSE 15:33:05 42° E 15:38:50 10° NNE
COSMO-SKYMED 1 2.5 15:29:51 10° NNE 15:34:11 67° ESE 15:38:28 10° S
Delta 2 Rocket 4.2 15:32:37 10° WNW 15:37:39 68° SSW 15:43:09 10° ESE
SAR-Lupe-4 3.8 15:35:00 10° N 15:38:34 72° WNW 15:42:07 10° SSW
Helios 1A Rocket 3.7 15:35:27 10° SE 15:39:01 29° ENE 15:42:36 10° NNE
Atlas Centaur 2 3.3 15:32:10 10° WSW 15:40:14 69° S 15:47:28 15° E
YAOGAN 1 3.7 15:37:11 10° ESE 15:40:30 22° ENE 15:43:49 10° NNE
NOAA 11 4.1 15:35:08 10° SSE 15:40:34 84° ENE 15:46:02 10° N
Meteor 2-1 Rocket 4.4 15:36:11 10° SSE 15:41:26 47° E 15:46:42 10° NNE
Cosmos 1417 Rocket 4.5 15:37:05 10° S 15:43:15 69° E 15:49:31 10° NNE
CZ-4B R/B 3.5 15:40:52 10° NNW 15:43:35 27° WNW 15:46:15 10° SW
Cosmos 1825 4.2 15:42:09 10° NE 15:42:35 12° NE 15:42:35 12° NE
ERS-2 4.4 15:42:52 10° NNW 15:45:58 27° WNW 15:49:03 10° SW
Cosmos 1812 Rocket 4.2 15:42:27 10° SSE 15:46:25 34° E 15:50:22 10° NNE
Okean O Rocket 3.3 15:42:56 10° SSW 15:46:59 37° W 15:51:03 10° NNW
GPS 2-04 Rocket1 2.7 15:43:35 10° WSW 15:47:36 82° SSE 15:50:12 22° ENE
CZ-2D R/B 3.6 15:44:23 10° SE 15:47:58 40° ENE 15:51:33 10° N
CZ-4 R/B 2.0 15:46:39 10° SE 15:50:05 30° ENE 15:53:29 10° N
Cosmos 1980 Rocket 2.5 15:46:42 10° S 15:51:58 42° ESE 15:57:13 10° NE
Meteor 2-15 Rocket 4.5 15:48:12 10° S 15:54:13 59° E 16:00:14 10° NNE
Cosmos 1992 Rocket 4.0 15:50:19 10° SSW 15:55:31 85° WNW 16:00:45 10° NNE
Cosmos 1340 2.7 15:52:00 10° N 15:55:47 81° W 15:59:33 10° S
CZ-2C R/B 3.6 15:53:09 10° SE 15:58:32 41° ENE 16:03:49 10° N
Cosmos 2297 Rocket 2.1 15:54:57 10° NNW 16:00:38 83° ENE 16:06:17 10° SSE
Cosmos 1553 Rocket 4.3 15:55:03 10° SSW 16:01:23 74° W 16:07:41 10° N
In-Cosmos 22 Rocket 4.1 15:56:54 10° N 16:02:20 87° W 16:07:52 10° S
Cosmos 1346 Rocket 2.9 15:59:01 10° N 16:02:55 51° E 16:06:48 10° SSE
Cosmos 2058 3.0 15:59:01 10° N 16:03:01 51° E 16:07:00 10° SSE
ASTRO E2 2.8 16:00:23 10° W 16:04:19 65° S 16:05:54 33° ESE
Meteor 2-15 4.5 15:59:32 10° S 16:05:41 85° W 16:11:51 10° N
Cosmos 1315 Rocket 2.7 16:02:50 10° S 16:06:46 88° W 16:10:46 10° N
Meteor 2-10 Rocket 3.8 16:05:38 10° SSW 16:10:59 72° W 16:16:09 10° N
CRYOSAT 2 4.3 16:09:56 10° NNE 16:14:45 60° E 16:19:31 10° S
Cosmos 2360 4.3 16:09:13 10° SSW 16:14:55 78° WNW 16:20:40 10° NNE
Geosat 3.9 16:12:41 12° NNE 16:17:26 77° ESE 16:22:26 10° SSW
Cosmos 1455 2.7 16:15:44 10° SSW 16:19:26 59° W 16:23:11 10° N
H-2A R/B 2.4 16:15:54 18° SE 16:19:29 43° ENE 16:24:36 10° N
USA 305 4.5 16:19:25 10° NNW 16:22:01 22° NNE 16:22:01 22° NNE
Okean-O 2.6 16:19:34 10° SSE 16:23:59 86° WSW 16:28:26 10° NNW
Cosmos 2278 3.6 16:19:35 10° SSW 16:25:16 89° W 16:30:46 11° NNE
USA 306 4.5 16:25:49 10° NNW 16:28:15 23° NNE 16:28:15 23° NNE
MOS 1 Rocket 3.4 16:27:59 10° N 16:32:51 89° WNW 16:38:00 10° SSW
Milstar 3 3.1 16:26:37 10° W 16:33:24 56° S 16:36:13 34° SE
Cosmos 2219 4.3 16:28:32 10° NW 16:33:59 45° WSW 16:39:25 10° S
ARGOS 3.8 16:35:50 36° NE 16:35:50 36° NE 16:39:34 10° N
Cosmos 1745 Rocket 4.2 16:28:54 10° N 16:35:13 76° W 16:41:33 10° S
Cosmos 44 Rocket 4.4 16:33:09 10° SW 16:37:36 40° WNW 16:41:12 15° N
ATLAS 2AS CENTAUR R/B 4.1 16:34:16 10° N 16:38:50 21° NNE 16:38:50 21° NNE
Cosmos 2082 3.6 16:35:42 10° NNW 16:41:27 80° ENE 16:43:52 37° SSE
Cosmos 1408 4.1 16:44:57 10° NNW 16:48:19 35° W 16:51:43 10° SSW
Cosmos 967 Rocket 4.4 16:42:38 10° SSW 16:49:04 87° WNW 16:51:58 35° NNE
CSL-04 Rocket 3.6 16:52:35 28° SSE 16:55:40 86° W 17:01:13 10° NNW
SL-16 R/B 4.3 16:56:47 10° S 16:57:27 13° S 16:57:27 13° S
Cosmos 1709 Rocket 4.0 16:58:22 10° N 17:04:46 80° W 17:11:07 10° S
Cosmos 2227 Rocket 3.9 17:00:00 10° NW 17:04:54 31° WSW 17:09:48 10° SSW
Cosmos 2263 Rocket 4.3 17:02:27 10° N 17:03:24 14° N 17:03:24 14° N
OAO 2 Rocket 4.1 17:07:38 10° W 17:11:10 46° WNW 17:11:10 46° WNW
CZ-4 R/B 4.4 17:23:04 10° SW 17:25:07 14° W 17:27:10 10° WNW
Atlas Centaur 2 3.1 17:21:40 10° W 17:30:04 68° S 17:30:04 68° S
Cosmos 1980 Rocket 4.3 17:31:44 10° WSW 17:36:04 23° WNW 17:39:22 14° NNW
H-2A R/B 4.4 17:56:31 15° SW 17:58:59 20° W 18:02:54 10° NW
